Location: Beekmeers
(50.8953°N, 3.6968°E)
Time: 13:40:48
(UTC+00:00)

SENTINEL 1B - Pass Details

Date: 19 October 2025
Orbit: 561 x 585 km, 98.1° (Epoch: 16 November)

Event Time Altitude Azimuth Distance (km) Brightness Sun altitude
Exits shadow 18:06:56 11° 43° (NE) 1,832 7.4 -13.7°
Drops below altitude 10° 18:07:42 10° 33° (NNE) 1,921 7.6 -13.9°
Sets 18:11:09 0° 2° (N) 2,823 8.7 -14.4°
